This is the latest recevied weather packets stored in our database for station/object KB2AHZ. If no packets are shown the sender has not sent any weather packets the latest 10 day(s).
| Time | Temp. | Humidity | Pressure | Rain* | Wind** | Luminosity | Snow |
|---|---|---|---|---|---|---|---|
| 1777688682 | 11.67° C | 86% | 1013.4 hPa | 0 mm | - | 0 W/m² | - |
| 1777688379 | 11.67° C | 85% | 1013.5 hPa | 0 mm | - | 0 W/m² | - |
| 1777688076 | 11.67° C | 85% | 1013.5 hPa | 0 mm | - | 0 W/m² | - |
| 1777687773 | 12.22° C | 84% | 1013.4 hPa | 0 mm | - | 0 W/m² | - |
| 1777687471 | 12.22° C | 84% | 1013.5 hPa | 0 mm | - | 0 W/m² | - |
| 1777687167 | 12.22° C | 83% | 1013.5 hPa | 0 mm | - | 0 W/m² | - |
| 1777686865 | 12.22° C | 83% | 1013.4 hPa | 0 mm | - | 0 W/m² | - |
| 1777686556 | 12.22° C | 83% | 1013.3 hPa | 0 mm | - | 0 W/m² | - |
| 1777686253 | 12.22° C | 82% | 1013.6 hPa | 0 mm | - | 0 W/m² | - |
| 1777685949 | 12.78° C | 81% | 1013.6 hPa | 0 mm | - | 0 W/m² | - |
| 1777685645 | 12.78° C | 80% | 1013.4 hPa | 0 mm | - | 0 W/m² | - |
| 1777685342 | 12.78° C | 79% | 1013.4 hPa | 0 mm | - | 0 W/m² | - |
| 1777685040 | 12.78° C | 79% | 1013.3 hPa | 0 mm | - | 0 W/m² | - |
| 1777684736 | 13.33° C | 78% | 1013.3 hPa | 0 mm | - | 0 W/m² | - |
| 1777684433 | 13.33° C | 78% | 1013 hPa | 0 mm | - | 0 W/m² | - |
| 1777684130 | 13.33° C | 76% | 1013.2 hPa | 0 mm | - | 0 W/m² | - |
| 1777683826 | 13.33° C | 76% | 1013.2 hPa | 0 mm | - | 0 W/m² | - |
| 1777683523 | 13.89° C | 76% | 1013 hPa | 0 mm | - | 0 W/m² | - |
| 1777683221 | 13.33° C | 75% | 1012.9 hPa | 0 mm | - | 0 W/m² | - |
| 1777682918 | 13.89° C | 75% | 1012.8 hPa | 0 mm | - | 0 W/m² | - |
| 1777682614 | 13.89° C | 74% | 1012.6 hPa | 0 mm | - | 0 W/m² | - |
| 1777682312 | 13.89° C | 74% | 1012.5 hPa | 0 mm | - | 0 W/m² | - |
| 1777682009 | 13.89° C | 73% | 1012.5 hPa | 0 mm | - | 0 W/m² | - |
| 1777681705 | 14.44° C | 73% | 1012.2 hPa | 0 mm | - | 0 W/m² | - |
| 1777681403 | 14.44° C | 72% | 1012.3 hPa | 0 mm | - | 0 W/m² | - |
* Rain latest hour (hover to see other rain measurements)
** Current wind speed in m/s (hover to see current wind gust speed)